Location: Myra
(43.4160°N, 88.0960°W)
Time: 20:55:16
(UTC-05:00)

Daily predictions for brighter satellites

Satellite Brightness Start Highest point End
(mag) Time Altitude Azimuth Time Altitude Azimuth Time Altitude Azimuth
Resurs 01 Rocket 2.4 19:06:08 10° SE 19:10:07 33° ENE 19:14:07 10° N
Okean 3 Rocket 3.8 19:06:09 10° N 19:10:38 54° E 19:15:05 10° SSE
NOSS 3-2 (A) 4.0 19:05:25 10° S 19:10:55 37° ESE 19:16:49 10° NE
Cosmos 2333 Rocket 2.5 19:05:57 10° SSW 19:11:44 79° WNW 19:17:32 10° NNE
SAR-Lupe-4 3.5 19:08:20 10° SSE 19:11:53 72° ENE 19:15:27 10° N
Cosmos 292 Rocket 3.7 19:07:20 10° SSW 19:12:06 74° ESE 19:16:56 10° NNE
CZ-2C R/B 4.3 19:07:32 10° SSW 19:12:08 37° W 19:16:37 10° NNW
USA 238 DEB 3.8 19:08:35 10° SSW 19:15:39 89° ESE 19:22:44 10° NE
USA 238 3.8 19:08:40 10° SSW 19:15:45 88° SE 19:22:51 10° NE
Cosmos 1484 Rocket 3.4 19:15:31 10° S 19:19:16 60° W 19:23:07 10° NNW
SL-19 R/B 4.5 19:14:04 10° SSE 19:19:40 84° WSW 19:25:36 10° NNW
Spot 1 4.4 19:15:41 10° SSE 19:20:19 52° ENE 19:24:43 10° N
Atlas Centaur 2 4.3 19:13:42 10° WSW 19:20:54 31° S 19:27:39 10° SE
ATLAS CENTAUR R/B 1.4 19:18:25 10° NW 19:22:43 82° WSW 19:26:38 10° SSE
BREEZE-M DEB (TANK) 4.4 19:20:29 10° WNW 19:23:43 47° SSW 19:33:04 10° SE
ALOS 3.0 19:27:49 10° SE 19:31:56 32° ENE 19:36:04 10° N
Cosmos 1437 3.1 19:30:45 10° NNW 19:34:01 69° W 19:37:15 10° S
Cosmos 1766 3.2 19:34:47 10° S 19:38:42 70° E 19:42:41 10° NNE
FREGAT/IRIS 2.8 19:36:27 10° S 19:39:32 76° WSW 19:42:39 10° NNW
Spot 2 Rocket 3.4 19:34:47 10° SSE 19:39:47 71° ENE 19:44:50 10° N
Cosmos 2237 Rocket 3.0 19:34:37 10° SW 19:40:12 56° WNW 19:45:48 10° NNE
NOSS 3-3 (A) 4.5 19:33:09 10° NNW 19:40:33 69° NE 19:48:25 10° SE
Cosmos 2056 Rocket 3.8 19:35:23 10° NNW 19:40:50 79° WSW 19:46:15 10° SSE
NOAA 12 4.3 19:37:15 10° S 19:42:29 76° WSW 19:47:48 10° NNW
OAO 3 Rocket 4.5 19:39:12 10° SW 19:43:11 26° S 19:46:05 15° ESE
COSMO-SKYMED 1 4.3 19:40:14 10° N 19:44:15 37° WNW 19:48:15 10° SW
NOSS 3-2 (C) 3.6 19:41:52 10° SSW 19:47:43 54° ESE 19:54:07 10° NE
Helios 1A 2.9 19:43:41 10° SSE 19:47:51 74° ENE 19:52:03 10° N
CZ-4C R/B 3.0 19:43:42 10° SW 19:48:58 53° NW 19:54:57 10° NNE
ASTEX 1 4.0 19:47:05 10° NNE 19:51:33 33° E 19:55:57 10° SSE
CENTAUR R/B 4.2 19:48:33 10° SE 19:48:51 11° SE 19:48:51 11° SE
ATLAS 5 CENTAUR R/B 2.2 19:47:29 10° S 19:51:56 41° ESE 19:56:44 10° NE
CZ-2D R/B 3.8 19:52:08 17° SE 19:54:43 38° ENE 19:58:22 10° N
Cosmos 1953 2.5 19:51:20 10° SSE 19:55:10 48° E 19:59:01 10° NNE
SL-16 R/B 2.2 19:53:00 10° SSW 19:58:42 87° WNW 20:04:27 10° NNE
Aureole 2 Rocket 3.2 19:56:23 10° SSW 20:00:46 73° WNW 20:05:05 10° NNE
Cosmos 2034 Rocket 3.9 19:57:20 10° S 20:03:31 71° E 20:09:50 10° NNE
USA 186 3.7 20:06:04 11° NNE 20:06:04 11° NNE 20:06:12 10° NNE
Cosmos 1766 Rocket 3.5 20:01:52 10° N 20:06:17 90° W 20:10:38 10° S
Cosmos 1464 Rocket 4.1 20:00:28 10° S 20:06:44 83° W 20:12:58 10° N
Cosmos 1805 3.1 20:08:16 10° S 20:12:11 77° E 20:16:09 10° NNE
H-2A R/B 4.3 20:14:39 12° NE 20:14:39 12° NE 20:15:27 10° NE
H-2A R/B 2.7 20:12:11 24° SSE 20:14:26 65° ENE 20:18:18 10° N
Cosmos 724 4.4 20:08:44 10° S 20:14:26 52° ESE 20:20:18 10° NE
Meteor 1-29 3.4 20:12:51 10° N 20:16:21 65° WNW 20:19:49 10° SSW
USA 215 3.4 20:16:32 10° NE 20:23:04 76° NW 20:29:35 10° WSW
Cosmos 1346 3.2 20:24:27 10° N 20:27:00 61° N 20:27:00 61° N
Cosmos 1544 2.9 20:24:05 10° S 20:27:48 80° E 20:31:34 10° N
FENGYUN 3A 3.8 20:26:36 10° S 20:31:57 74° WSW 20:37:22 10° NNW
Cosmos 1470 4.0 20:34:27 27° NNE 20:34:27 27° NNE 20:36:26 10° NNE
Cosmos-2242 3.3 20:28:55 10° SSW 20:33:15 70° W 20:37:38 10° N
ERS-1 Rocket 3.3 20:34:40 41° E 20:34:59 41° ENE 20:39:42 10° N
Helios 1B rocket 4.0 20:31:33 10° N 20:35:21 37° WNW 20:39:08 10° SW
Cosmos 1758 4.1 20:31:59 10° SSW 20:35:59 54° W 20:40:01 10° N
Cosmos 1452 Rocket 4.0 20:32:26 10° NNW 20:37:36 58° WSW 20:41:52 15° S
Cosmos 1842 Rocket 3.4 20:39:26 65° ESE 20:39:36 65° E 20:43:55 10° NNE
Cosmos 1500 Rocket 3.4 20:36:37 10° N 20:41:03 76° E 20:41:42 62° SE
SeaSat 1 2.3 20:36:38 10° NNE 20:41:36 73° ESE 20:46:31 10° SSW
Cosmos 2369 Rocket 2.5 20:37:32 10° NNW 20:42:58 45° ENE 20:43:36 44° ENE
Cosmos 1603 3.6 20:40:01 10° SSW 20:45:45 86° ESE 20:51:33 10° NNE
Resurs 01 Rocket 3.9 20:42:59 10° SSW 20:46:37 24° W 20:50:17 10° NW
Cosmos 839 Rocket 4.5 20:39:36 10° NNW 20:47:26 56° NE 20:49:19 43° E
Cosmos 2151 4.0 20:48:45 10° N 20:51:24 34° NNE 20:51:24 34° NNE
Cosmos 1943 Rocket 3.4 20:49:35 10° N 20:53:53 27° NE 20:53:53 27° NE
Cosmos 1939 Rocket 4.1 21:00:35 32° N 21:00:35 32° N 21:02:55 10° N
NOSS 3-2 (A) 4.5 20:55:42 10° WSW 21:01:37 46° NW 21:08:07 10° NNE
Cosmos 1420 Rocket 4.3 20:56:25 10° NNW 21:01:40 64° WSW 21:03:19 42° SSW
Meteor 1-11 4.4 20:57:26 10° N 21:02:51 55° ENE 21:02:51 55° ENE
Cosmos 1674 3.7 21:03:51 10° NNW 21:07:21 46° W 21:07:21 46° W
ALOS 4.2 21:05:22 10° SSW 21:09:22 28° W 21:13:23 10° NW
Cosmos 1655 Rocket 3.9 21:06:24 10° N 21:12:37 68° E 21:12:38 68° E
Cosmos 1269 Rocket 4.5 21:10:06 10° SSW 21:15:19 60° WNW 21:20:34 10° NNE
GP-B 3.7 21:12:27 10° N 21:16:39 56° WNW 21:16:39 56° WNW
Cosmos 2279 Rocket 4.4 21:20:11 47° NE 21:20:11 47° NE 21:24:43 10° NNE
H-2A R/B 4.3 21:24:25 12° NNE 21:24:25 12° NNE 21:25:07 10° NNE
Cosmos 1048 Rocket 4.4 21:16:48 10° SSW 21:22:02 62° WNW 21:27:16 10° NNE
BREEZE-M DEB (TANK) 4.3 21:16:18 10° W 21:26:04 53° NNW 21:26:53 48° NNE
Envisat 3.4 21:30:15 61° NW 21:30:15 61° NW 21:34:34 10° NNW
ATLAS 5 CENTAUR R/B 3.5 21:32:18 10° WSW 21:36:43 32° NW 21:41:29 10° NNE
Cosmos 1634 Rocket 4.5 21:33:47 24° SSW 21:37:37 58° WNW 21:43:45 10° N
Cosmos 2026 Rocket 4.0 21:33:04 10° NNW 21:39:07 70° W 21:39:13 70° WSW
CENTAUR R/B 4.3 21:35:07 10° SSW 21:47:41 12° NE 21:48:07 10° NE
UNK 4.4 21:30:25 10° WNW 21:46:56 68° NNE 21:47:08 68° NNE
H-2A R/B 4.3 21:51:47 23° NNW 21:51:47 23° NNW 21:53:29 10° NNW
Cosmos 2369 Rocket 4.0 22:22:02 10° NW 22:25:24 25° W 22:25:24 25° W
Cosmos 1943 Rocket 4.1 22:32:55 10° NW 22:35:24 26° NW 22:35:24 26° NW
